Wetbulb
62.10 61.24 61.39 60.93 60.85 60.98 60.48 60.81 60.58 61.36 61.34 62.06 62.68 62.62 61.49 60.35 60.61 60.47 59.39 58.55 59.03 58.79
61.99 62.14 61.49 61.46 61.33 60.79 60.87 60.82 61.77 61.18 61.78 62.31 62.35 62.83 61.29 60.42 59.72 60.39 59.78 59.91 59.55 59.81
62.59 62.59 61.92 61.24 60.72 60.96 60.71 60.97 61.04 61.13 62.02 62.53 62.06 62.74 61.04 60.08 61.37 61.94 61.05 60.79 59.60 60.05
62.64 62.55 60.81 60.74 61.78 60.52 60.19 62.19 60.90 61.50 62.20 62.28 61.71 61.54 60.45 60.11 61.18 61.55 61.57 60.21 59.57 59.54
62.63 61.21 60.87 60.56 61.23 60.20 58.58 59.55 60.69 61.76 63.65 62.53 62.54 61.31 60.75 61.02 62.26 61.36 59.87 60.34 60.27 58.84
62.76 61.14 60.54 60.71 62.06 59.67 59.39 61.05 61.60 61.43 61.54 62.05 62.04 61.89 61.05 60.95 62.14 61.55 59.76 59.89 59.41 59.08
61.20 61.17 60.77 60.90 60.51 61.95 60.35 60.46 61.73 62.58 62.74 63.12 61.89 62.22 63.23 62.92 62.03 61.30 60.11 59.30 60.76 60.72
61.54 61.59 60.93 60.93 59.75 60.75 60.94 60.04 62.16 62.33 61.66 60.66 59.44 59.01 61.37 62.54 61.51 60.65 59.91 60.61 60.67 60.70
63.26 62.89 62.11 61.73 61.81 58.80 60.90 61.40 61.42 61.96 60.45 58.00 58.35 49.18 51.53 57.69 61.36 61.38 60.97 59.84 59.00 59.41
62.84 61.43 62.05 62.02 59.84 59.64 60.78 61.91 61.13 60.47 58.50 56.86 54.35 47.02 47.57 51.57 61.27 61.36 60.45 61.41 61.34 60.48
61.55 60.59 61.18 61.53 60.37 60.65 59.41 59.23 59.30 60.59 58.56 56.53 54.15 47.77 46.70 53.22 61.26 60.61 60.50 60.77 60.76 60.56
61.13 60.16 61.77 61.50 60.05 59.78 60.01 59.84 59.34 60.44 57.94 56.65 54.08 48.33 46.15 58.14 60.79 60.31 60.38 61.77 61.46 60.78
61.21 61.75 61.45 61.90 60.23 59.84 60.35 60.97 62.49 60.84 59.42 55.40 55.38 48.69 46.33 57.03 61.81 59.98 59.14 58.84 58.39 52.90
61.62 62.44 61.33 60.88 60.42 60.74 61.02 60.98 60.56 60.29 59.09 58.43 56.49 52.89 46.52 51.77 61.06 60.40 59.34 58.54 58.07 56.19
MSLP
1004.33 1004.92 1005.34 1005.71 1006.13 1006.63 1006.95 1006.96 1007.04 1007.20 1007.28 1007.43 1007.54 1007.55 1007.72 1007.91 1007.96 1007.97 1008.02 1008.07 1008.30 1008.53
1004.65 1005.11 1005.56 1005.88 1006.16 1006.50 1006.61 1006.77 1006.94 1007.12 1007.10 1007.22 1007.27 1007.33 1007.46 1007.71 1007.82 1007.77 1007.86 1007.95 1008.07 1008.16
1004.81 1005.20 1005.57 1005.98 1006.37 1006.42 1006.66 1006.77 1006.97 1006.93 1006.93 1007.03 1007.15 1007.24 1007.35 1007.40 1007.44 1007.57 1007.72 1007.83 1008.01 1007.94
1004.79 1005.14 1005.67 1005.95 1006.09 1006.40 1006.54 1006.61 1006.82 1006.80 1006.94 1006.99 1007.10 1007.22 1007.21 1007.28 1007.27 1007.30 1007.42 1007.80 1007.94 1008.04
1004.89 1005.31 1005.82 1006.13 1006.22 1006.38 1006.46 1006.47 1006.61 1006.70 1006.83 1007.03 1007.21 1007.09 1007.21 1007.31 1007.19 1007.29 1007.71 1007.78 1007.95 1008.05
1005.02 1005.50 1005.94 1006.16 1006.24 1006.33 1006.37 1006.53 1006.39 1006.62 1006.83 1007.08 1007.27 1007.23 1007.08 1007.09 1007.05 1007.37 1007.66 1007.96 1008.04 1008.02
1004.99 1005.50 1005.94 1006.06 1006.30 1006.40 1006.41 1006.51 1006.49 1006.59 1006.79 1007.11 1007.28 1007.37 1007.19 1006.98 1007.25 1007.46 1007.86 1007.97 1007.96 1007.92
1004.99 1005.50 1005.80 1006.03 1006.25 1006.30 1006.43 1006.52 1006.53 1006.73 1007.02 1007.45 1007.61 1007.95 1007.57 1007.37 1007.47 1007.74 1007.99 1008.11 1008.17 1008.23
1004.95 1005.51 1005.77 1006.07 1006.26 1006.39 1006.45 1006.50 1006.58 1006.92 1007.42 1007.82 1008.24 1008.34 1007.98 1007.77 1007.73 1007.93 1008.09 1008.38 1008.75 1008.99
1004.91 1005.37 1005.72 1006.03 1006.20 1006.48 1006.63 1006.69 1006.93 1007.39 1007.71 1008.21 1008.54 1008.44 1008.20 1007.95 1008.02 1008.07 1008.23 1008.45 1008.78 1009.24
1004.86 1005.33 1005.65 1005.94 1006.32 1006.59 1006.81 1007.05 1007.36 1007.74 1007.95 1008.45 1008.96 1008.68 1008.40 1008.25 1008.34 1008.39 1008.54 1008.73 1009.19 1009.71
1004.57 1005.12 1005.60 1006.01 1006.39 1006.68 1006.93 1007.20 1007.48 1007.82 1008.19 1008.62 1009.06 1008.88 1008.65 1008.51 1008.72 1008.90 1009.14 1009.33 1009.71 1010.18
1004.31 1005.03 1005.64 1006.09 1006.47 1006.69 1006.91 1007.15 1007.39 1008.01 1008.27 1008.55 1009.03 1009.10 1008.90 1008.83 1009.01 1009.37 1009.63 1010.05 1010.43 1010.79
1004.22 1004.85 1005.49 1006.00 1006.37 1006.76 1007.12 1007.43 1007.77 1008.21 1008.55 1008.66 1008.97 1009.29 1009.12 1009.17 1009.38 1009.77 1010.21 1010.67 1011.19 1011.71
Wind_Speed
8 5 4 4 4 4 3 4 3 3 4 4 4 4 3 2 4 4 3 4 4 3
6 8 6 6 4 3 5 3 4 4 3 3 2 3 3 3 3 3 2 3 4 3
7 7 6 6 5 5 4 2 6 4 3 2 2 2 3 2 3 4 2 2 2 2
7 7 6 6 5 5 3 5 5 5 4 3 2 4 3 2 2 4 2 4 4 3
6 7 6 5 6 5 4 3 4 3 4 3 4 3 3 3 3 1 5 1 3 2
8 7 6 5 6 5 4 4 4 1 5 5 4 2 3 2 2 4 4 4 3 4
7 7 6 5 6 5 5 4 2 5 6 5 5 4 3 0 5 4 5 4 4 4
7 7 6 5 4 3 5 3 5 5 6 7 6 5 4 4 6 5 5 5 4 6
9 7 6 5 5 4 3 6 5 5 8 6 5 5 9 5 5 5 5 6 6 8
8 6 5 5 6 5 5 5 5 7 7 6 5 6 7 6 5 5 5 6 8 9
10 7 6 6 6 4 3 4 4 6 6 6 4 6 8 6 6 5 6 7 10 11
10 7 7 6 6 4 4 3 3 5 6 6 4 5 7 5 5 5 7 7 10 10
9 9 9 7 6 3 3 4 5 6 5 7 5 4 6 4 5 7 6 7 8 11
8 8 7 7 4 4 5 6 6 7 5 6 5 4 7 6 5 6 6 6 6 5
Wind_Direction
114 115 116 103 120 141 155 174 191 176 190 198 208 215 196 214 228 238 227 190 185 181
100 93 100 97 110 129 133 159 172 188 189 214 204 205 192 191 205 230 225 232 191 172
128 121 127 116 131 128 150 176 161 186 193 215 171 92 169 193 235 216 206 81 81 98
134 133 124 135 134 139 178 173 175 206 187 163 84 107 126 140 239 198 186 112 121 89
118 116 121 125 133 156 162 192 208 234 176 142 121 116 129 153 207 36 60 159 119 135
125 125 135 153 153 175 203 229 253 116 145 134 116 164 146 192 158 159 126 60 53 146
137 137 158 171 167 191 207 233 166 162 117 115 73 27 55 161 112 112 108 85 89 106
134 144 150 180 189 191 196 184 155 119 105 84 63 38 28 46 109 113 110 89 70 70
135 144 155 177 199 190 154 138 131 98 100 94 82 360 37 32 99 113 118 108 86 101
145 151 160 182 154 138 134 129 116 115 110 97 79 25 28 21 105 105 101 107 110 103
148 161 172 143 140 122 111 124 117 112 110 106 77 35 13 77 100 101 89 101 112 116
149 153 137 130 143 142 130 129 141 127 122 116 89 27 23 109 99 94 92 106 120 123
150 136 150 147 152 164 139 152 139 122 120 122 118 35 24 111 104 96 97 81 94 109
144 128 125 133 147 130 120 111 102 115 122 115 125 66 63 105 108 116 111 112 112 121